STARLINK-35533, 66429

Orbit data source: Space-Track

STARLINK-35533, 66429 is a payload satellite owned by SpaceX/Seattle (US) in LEO that was launched on Tue, 11 Nov 2025 UTC via an FALCON 9 launch vehicle from the Air Force Eastern Test Range (AFETR). Payload-class satellites include a variety of spacecraft equipped with specific instruments for various scientific and technological missions. These include communications satellites like Starlink; space stations such as the ISS; scientific satellites like the Hubble; Earth observation satellites from companies like Planet Labs, Umbra, and HawkEye 360; GPS; miniature CubeSats for education and research; and military/defense satellites.

Loading next visibility...
Identifier
66429, 2025-259H
Orbit
LEO
Country
Flag of USUS
Related business
Manufacturer
SpaceX/Seattle
Mission
Operational Commercial Communications
Bus & Motor
STARLINK V2MO, Unknown motor
Mass
575 kg wet, ~530 kg dry
Launch date (UTC)
2025-11-11 (7 months ago)
Launch vehicle
FALCON 9
Launch site
Air Force Eastern Test Range (AFETR)
Object type
Payload
Rocket body
Debris
Shape & HBR
Box + 2 Pan, 17.7 m
Radar Cross Section
36.964 m², Large (>1 m²)

Expand to show TLE details & history
Last TLE update: 14 hours ago

TLE from 14 hours ago
0 STARLINK-35533
1 66429U 25259H   26150.10071999  .00027838  00000-0  10167-2 0  9995
2 66429  42.9991 174.4441 0001169 259.0076 101.0644 15.27600154 31948
Epoch: 2026-05-30T02:25Z
TLE epoch observation values (Epoch: 2026-05-30T02:25:02.207Z)
Latitude
-0.00002°
Longitude
-109.4367°
Altitude
482.918 km
Speed
7.626 km/s
True Right ascension
11h 37m 46s
True Declination
0° 00' 00"
Sunlit
Object was in daylight at epoch
Visualization orbit readout
Latitude
Unknown
Longitude
Unknown
Altitude
Unknown
Speed
Unknown
Apparent Right ascension
Unknown
Apparent Declination
Unknown
Sunlit
N/A
Visualization observer readout
Local Sidereal Time
02:00:27
Azimuth
Unknown
Elevation
Unknown
Doppler factor
Unknown
Orbital elements
Apogee altitude
485.736 km
Perigee altitude
484.132 km
Semi-major axis
6,863.071 km
Eccentricity
0.00012
Inclination
42.9991°
RAAN
174.4441°
Arg. of periapsis
259.0076°
True anomaly
101.07755°
Mean anomaly
101.0644°
Eccentric anomaly
101.07097°
Mean motion
3.81738 °/min
Orbital period
94.31 mins
BSTAR
0.0010167
Loading maneuver chart data...
Computing Atmospheric mass density...
Loading historical data...
Loading historical data...
Loading historical data...
Loading historical data...
Loading historical data...
Loading historical data...
Loading historical data...

Documentation

Showing up to 5 results
|